User: anonymous
Location: Tyler Bend Campground
(35.9875°N, 92.7606°W)
Time: 06:24:37
(UTC-05:00)
Language:

CZ-2C R/B - Orbit

View from above orbital plane
View from above orbital plane
View from above satellite
View from above satellite

Ground track
Ground track

The orbit data is extracted from the following two-line orbital elements,

1 36089U 09061B   14234.73636457  .00000150  00000-0  49320-4 0  4057
2 36089 098.1014 265.0629 0081681 335.1779 159.0740 14.49204920252572
Epoch (UTC): 22 August 2014 17:40:21
Eccentricity: 0.0081681
inclination: 98.1014°
perigee height: 670 km
apogee height: 786 km
right ascension of ascending node: 265.0629°
argument of perigee: 335.1779°
revolutions per day: 14.49204920
mean anomaly at epoch: 159.0740°
orbit number at epoch: 25257

The dashed part of the orbit path shows where the satellite is in the earth's shadow,  

DLR